When you browse on this site, cookies collect data to enhance your experience and personalize the content and advertising you see.
Visit our Privacy Policy to learn more. By continuing to use the site, you agree to this use of cookies and data.
  • In Österreich
  • Länderverzeichnis
  • Für 7 Tage
  • Wassertemperatur
  • Satellitenkarten
  • Wetterkarte
  • News
  • Widgets
  • user-avatar
    Anmelden

    Stündliche Wetter Elzbieciny

    Heute, 21 Mai, Dienstag

    Zeit Temperatur Niederschläge Wind Luftdruck Luftfeuchtigkeit
    00:00 +14°C° 0 mm 2 m/S 744 mmHg 86%
    01:00 +13°C° 0 mm 2 m/S 744 mmHg 88%
    02:00 +13°C° 0 mm 2 m/S 744 mmHg 89%
    03:00 +13°C° 0 mm 2 m/S 744 mmHg 90%
    04:00 +12°C° 0 mm 2 m/S 744 mmHg 91%
    05:00 +14°C° 0 mm 2 m/S 744 mmHg 87%
    06:00 +15°C° 0 mm 2 m/S 745 mmHg 82%
    07:00 +17°C° 0 mm 2 m/S 745 mmHg 78%
    08:00 +18°C° 0 mm 2 m/S 745 mmHg 73%
    09:00 +20°C° 0 mm 3 m/S 745 mmHg 68%
    10:00 +21°C° 0 mm 3 m/S 745 mmHg 63%
    11:00 +21°C° 0 mm 2 m/S 745 mmHg 63%
    12:00 +23°C° 0 mm 2 m/S 744 mmHg 62%
    13:00 +23°C° 0 mm 2 m/S 744 mmHg 61%
    14:00 +23°C° 0.1 mm 2 m/S 744 mmHg 61%
    15:00 +23°C° 0.1 mm 2 m/S 744 mmHg 61%
    16:00 +23°C° 0.1 mm 1 m/S 744 mmHg 60%
    17:00 +21°C° 0.3 mm 2 m/S 744 mmHg 67%
    18:00 +20°C° 0.3 mm 2 m/S 743 mmHg 73%
    19:00 +19°C° 0.3 mm 3 m/S 743 mmHg 80%
    20:00 +18°C° 0 mm 3 m/S 744 mmHg 84%
    21:00 +17°C° 0 mm 3 m/S 744 mmHg 87%
    22:00 +15°C° 0 mm 4 m/S 744 mmHg 91%
    23:00 +16°C° 0.2 mm 3 m/S 744 mmHg 93%

    Morgen, 22 Mai, Mittwoch

    Zeit Temperatur Niederschläge Wind Luftdruck Luftfeuchtigkeit
    00:00 +14°C° 0.2 mm 3 m/S 744 mmHg 94%
    01:00 +14°C° 0.2 mm 3 m/S 744 mmHg 96%
    02:00 +14°C° 1.2 mm 3 m/S 744 mmHg 96%
    03:00 +14°C° 1.2 mm 3 m/S 744 mmHg 97%
    04:00 +14°C° 1.2 mm 3 m/S 744 mmHg 97%
    05:00 +14°C° 0.5 mm 4 m/S 745 mmHg 96%
    06:00 +14°C° 0.5 mm 4 m/S 745 mmHg 95%
    07:00 +14°C° 0.5 mm 5 m/S 745 mmHg 93%
    08:00 +15°C° 0.1 mm 5 m/S 746 mmHg 92%
    09:00 +16°C° 0.1 mm 5 m/S 746 mmHg 90%
    10:00 +16°C° 0.1 mm 6 m/S 746 mmHg 88%
    11:00 +17°C° 0.4 mm 6 m/S 746 mmHg 86%
    12:00 +17°C° 0.4 mm 6 m/S 747 mmHg 84%
    13:00 +19°C° 0.4 mm 6 m/S 747 mmHg 83%
    14:00 +18°C° 0.9 mm 7 m/S 747 mmHg 84%
    15:00 +18°C° 0.9 mm 7 m/S 747 mmHg 85%
    16:00 +17°C° 0.9 mm 7 m/S 747 mmHg 86%
    17:00 +17°C° 0.3 mm 7 m/S 748 mmHg 88%
    18:00 +16°C° 0.3 mm 7 m/S 748 mmHg 89%
    19:00 +15°C° 0.3 mm 7 m/S 748 mmHg 91%
    20:00 +14°C° 0 mm 6 m/S 749 mmHg 91%
    21:00 +14°C° 0 mm 6 m/S 749 mmHg 91%
    22:00 +14°C° 0 mm 6 m/S 750 mmHg 91%
    23:00 +13°C° 0 mm 6 m/S 750 mmHg 91%

    übermorgen, 23 Mai, Donnerstag

    Zeit Temperatur Niederschläge Wind Luftdruck Luftfeuchtigkeit
    00:00 +13°C° 0 mm 6 m/S 751 mmHg 91%
    01:00 +13°C° 0 mm 6 m/S 751 mmHg 91%
    02:00 +11°C° 0 mm 6 m/S 751 mmHg 90%
    03:00 +11°C° 0 mm 6 m/S 751 mmHg 89%
    04:00 +10°C° 0 mm 6 m/S 752 mmHg 89%
    05:00 +10°C° 0.1 mm 6 m/S 752 mmHg 89%
    06:00 +9°C° 0.1 mm 6 m/S 753 mmHg 89%
    07:00 +9°C° 0.1 mm 6 m/S 753 mmHg 89%
    08:00 +9°C° 0 mm 5 m/S 753 mmHg 87%
    09:00 +9°C° 0 mm 5 m/S 754 mmHg 85%
    10:00 +9°C° 0 mm 5 m/S 754 mmHg 82%
    11:00 +12°C° 0 mm 4 m/S 754 mmHg 76%
    12:00 +13°C° 0 mm 4 m/S 754 mmHg 70%
    13:00 +16°C° 0 mm 3 m/S 754 mmHg 64%
    14:00 +17°C° 0 mm 4 m/S 754 mmHg 61%
    15:00 +18°C° 0 mm 4 m/S 754 mmHg 58%
    16:00 +17°C° 0 mm 5 m/S 753 mmHg 54%
    17:00 +17°C° 0 mm 4 m/S 753 mmHg 60%
    18:00 +16°C° 0 mm 3 m/S 753 mmHg 65%
    19:00 +14°C° 0 mm 3 m/S 753 mmHg 71%
    20:00 +13°C° 0 mm 2 m/S 754 mmHg 74%
    21:00 +12°C° 0 mm 2 m/S 754 mmHg 76%
    22:00 +10°C° 0 mm 2 m/S 754 mmHg 79%
    23:00 +9°C° 0 mm 2 m/S 754 mmHg 81%

    24 Mai, Freitag

    Zeit Temperatur Niederschläge Wind Luftdruck Luftfeuchtigkeit
    00:00 +9°C° 0 mm 1 m/S 754 mmHg 82%
    01:00 +9°C° 0 mm 1 m/S 754 mmHg 83%
    02:00 +9°C° 0 mm 1 m/S 754 mmHg 82%
    03:00 +9°C° 0 mm 1 m/S 753 mmHg 81%
    04:00 +9°C° 0 mm 1 m/S 753 mmHg 80%
    05:00 +11°C° 0 mm 1 m/S 753 mmHg 77%
    06:00 +12°C° 0 mm 2 m/S 753 mmHg 75%
    07:00 +14°C° 0 mm 2 m/S 753 mmHg 72%
    08:00 +16°C° 0 mm 2 m/S 753 mmHg 67%
    09:00 +17°C° 0 mm 2 m/S 752 mmHg 61%
    10:00 +19°C° 0 mm 2 m/S 752 mmHg 55%
    11:00 +19°C° 0 mm 2 m/S 752 mmHg 54%
    12:00 +20°C° 0 mm 2 m/S 751 mmHg 53%
    13:00 +20°C° 0 mm 2 m/S 751 mmHg 52%
    14:00 +21°C° 0 mm 2 m/S 750 mmHg 52%
    15:00 +21°C° 0 mm 3 m/S 750 mmHg 51%
    16:00 +21°C° 0 mm 3 m/S 749 mmHg 51%
    17:00 +20°C° 0 mm 2 m/S 749 mmHg 56%
    18:00 +19°C° 0 mm 2 m/S 749 mmHg 61%
    19:00 +19°C° 0 mm 1 m/S 749 mmHg 66%
    20:00 +16°C° 0 mm 2 m/S 749 mmHg 68%
    21:00 +15°C° 0 mm 2 m/S 749 mmHg 71%
    22:00 +13°C° 0 mm 3 m/S 749 mmHg 73%
    23:00 +13°C° 0 mm 3 m/S 748 mmHg 75%

    25 Mai, Samstag

    Zeit Temperatur Niederschläge Wind Luftdruck Luftfeuchtigkeit
    00:00 +12°C° 0 mm 3 m/S 748 mmHg 77%
    01:00 +12°C° 0 mm 3 m/S 748 mmHg 79%
    02:00 +12°C° 0 mm 3 m/S 748 mmHg 83%
    03:00 +11°C° 0 mm 3 m/S 748 mmHg 88%
    04:00 +11°C° 0 mm 3 m/S 748 mmHg 92%
    05:00 +13°C° 0 mm 3 m/S 748 mmHg 88%
    06:00 +14°C° 0 mm 3 m/S 748 mmHg 85%
    07:00 +15°C° 0 mm 4 m/S 748 mmHg 81%
    08:00 +17°C° 0 mm 4 m/S 748 mmHg 74%
    09:00 +19°C° 0 mm 4 m/S 748 mmHg 68%
    10:00 +20°C° 0 mm 4 m/S 749 mmHg 61%
    11:00 +20°C° 0.1 mm 5 m/S 748 mmHg 60%
    12:00 +21°C° 0.1 mm 5 m/S 748 mmHg 58%
    13:00 +21°C° 0.1 mm 5 m/S 748 mmHg 57%
    14:00 +21°C° 0.1 mm 5 m/S 748 mmHg 57%
    15:00 +21°C° 0.1 mm 5 m/S 748 mmHg 57%
    16:00 +21°C° 0.1 mm 5 m/S 748 mmHg 57%
    17:00 +20°C° 0 mm 4 m/S 748 mmHg 62%
    18:00 +19°C° 0 mm 4 m/S 749 mmHg 66%
    19:00 +17°C° 0 mm 3 m/S 749 mmHg 70%
    20:00 +14°C° 0 mm 3 m/S 749 mmHg 75%
    21:00 +13°C° 0 mm 3 m/S 749 mmHg 79%
    22:00 +12°C° 0 mm 2 m/S 750 mmHg 83%
    23:00 +10°C° 0 mm 2 m/S 750 mmHg 84%

    26 Mai, Sonntag

    Zeit Temperatur Niederschläge Wind Luftdruck Luftfeuchtigkeit
    00:00 +10°C° 0 mm 1 m/S 749 mmHg 85%
    01:00 +9°C° 0 mm 0 m/S 749 mmHg 86%
    02:00 +10°C° 0 mm 1 m/S 749 mmHg 86%
    03:00 +9°C° 0 mm 2 m/S 749 mmHg 87%
    04:00 +9°C° 0 mm 3 m/S 749 mmHg 88%
    05:00 +11°C° 0 mm 4 m/S 749 mmHg 85%
    06:00 +12°C° 0 mm 4 m/S 749 mmHg 83%
    07:00 +14°C° 0 mm 5 m/S 749 mmHg 80%
    08:00 +14°C° 0.1 mm 6 m/S 749 mmHg 76%
    09:00 +15°C° 0.1 mm 7 m/S 749 mmHg 72%
    10:00 +16°C° 0.1 mm 7 m/S 749 mmHg 68%
    11:00 +15°C° 0 mm 7 m/S 749 mmHg 69%
    12:00 +14°C° 0 mm 7 m/S 749 mmHg 69%
    13:00 +12°C° 0 mm 7 m/S 749 mmHg 70%
    14:00 +13°C° 0 mm 6 m/S 749 mmHg 67%
    15:00 +14°C° 0 mm 6 m/S 750 mmHg 65%
    16:00 +14°C° 0 mm 6 m/S 750 mmHg 63%
    17:00 +14°C° 0 mm 5 m/S 750 mmHg 66%
    18:00 +13°C° 0 mm 4 m/S 750 mmHg 70%
    19:00 +12°C° 0 mm 3 m/S 750 mmHg 74%
    20:00 +11°C° 0 mm 3 m/S 750 mmHg 76%
    21:00 +10°C° 0 mm 3 m/S 750 mmHg 79%
    22:00 +9°C° 0 mm 2 m/S 750 mmHg 81%
    23:00 +9°C° 0 mm 3 m/S 750 mmHg 82%
    Mehr zeigen